Change the Weather History Date:

Tuesday, October 14, 2014

  Actual Average Record
Temperature  
Mean Temperature 65 °F 61 °F  
Max Temperature 72 °F 70 °F 91 °F (2001)
Min Temperature 58 °F 52 °F 45 °F (1985)
Degree Days  
Heating Degree Days 0 5  
Month to date heating degree days 12 52  
Since 1 July heating degree days 42 252  
Cooling Degree Days 0 0  
Month to date cooling degree days 39 12  
Year to date cooling degree days 305 137  
Growing Degree Days 16 (Base 50)    
Moisture  
Dew Point 55 °F    
Average Humidity 70    
Maximum Humidity 87    
Minimum Humidity 53    
Precipitation  
Precipitation 0.00 in 0.03 in 0.52 in (1972)
Month to date precipitation 0.00 0.36  
Year to date precipitation 8.43 13.86  
Since 1 July precipitation 0.45 0.64  
Sea Level Pressure  
Sea Level Pressure 29.89 in    
Wind  
Wind Speed 9 mph (SSW)    
Max Wind Speed 26 mph    
Max Gust Speed 32 mph    
Visibility 10 miles    
Events      
T = Trace of Precipitation, MM = Missing Value Source: NWS Daily Summary

Daily Weather History Graph

Daily Weather History Graph

Search for Another Location

Airport or City:

Trip Planner

Search our weather history database for the weather conditions in past years. The results will help you decide how hot, cold, wet, or windy it might be!

Date:

Astronomy

Oct. 14, 2014 Rise Set
Actual Time 7:16 AM PDT 6:32 PM PDT
Civil Twilight 6:50 AM PDT 6:59 PM PDT
Nautical Twilight 6:19 AM PDT 7:29 PM PDT
Astronomical Twilight 5:49 AM PDT 7:59 PM PDT
Moon 11:46 PM PDT (10/14) 1:17 PM PDT (10/14)
Length of Visible Light 12h 09m
Length of Day
11h 16m
Waning Gibbous, 60% of the Moon is Illuminated
Oct 14
Waning Gibbous
Oct 15
Last Quarter
Oct 23
New
Oct 30
First Quarter
Nov 6
Full

Hourly Weather History & Observations

Time (PDT) Temp. Dew Point Humidity Pressure Visibility Wind Dir Wind Speed Gust Speed Precip Events Conditions
12:53 AM 59.0 °F 55.0 °F 87% 29.94 in 10.0 mi NNW 5.8 mph - N/A   Partly Cloudy
1:53 AM 59.0 °F 55.0 °F 87% 29.94 in 10.0 mi NNW 5.8 mph - N/A   Partly Cloudy
2:24 AM 59.0 °F 55.4 °F 88% 29.95 in 10.0 mi NNW 3.5 mph - N/A   Mostly Cloudy
2:53 AM 60.1 °F 55.9 °F 86% 29.94 in 10.0 mi North 3.5 mph - N/A   Overcast
3:53 AM 62.1 °F 57.0 °F 84% 29.93 in 10.0 mi WSW 8.1 mph - N/A   Overcast
4:53 AM 62.1 °F 55.9 °F 80% 29.92 in 10.0 mi SW 4.6 mph - N/A   Overcast
5:36 AM 60.8 °F 55.4 °F 82% 29.91 in 10.0 mi Calm Calm - N/A   Overcast
5:53 AM 61.0 °F 55.9 °F 83% 29.90 in 10.0 mi ENE 4.6 mph - N/A   Overcast
6:45 AM 59.0 °F 53.6 °F 82% 29.89 in 10.0 mi ENE 3.5 mph - N/A   Mostly Cloudy
6:53 AM 59.0 °F 54.0 °F 83% 29.89 in 10.0 mi Calm Calm - N/A   Mostly Cloudy
7:34 AM 59.0 °F 53.6 °F 82% 29.89 in 9.0 mi Calm Calm - N/A   Mostly Cloudy
7:53 AM 60.8 °F 55.4 °F 82% 29.89 in 9.0 mi Calm Calm - N/A   Overcast
8:53 AM 63.0 °F 57.0 °F 81% 29.90 in 8.0 mi SSE 3.5 mph - N/A   Mostly Cloudy
9:29 AM 64.4 °F 57.2 °F 77% 29.90 in 10.0 mi SSE 3.5 mph - N/A   Mostly Cloudy
9:53 AM 64.9 °F 57.0 °F 75% 29.91 in 10.0 mi Calm Calm - N/A   Mostly Cloudy
10:53 AM 66.0 °F 55.0 °F 68% 29.90 in 10.0 mi SW 4.6 mph - N/A   Mostly Cloudy
11:53 AM 66.0 °F 55.9 °F 70% 29.90 in 10.0 mi West 4.6 mph - N/A   Overcast
12:53 PM 70.0 °F 55.9 °F 61% 29.87 in 10.0 mi SSW 17.3 mph 21.9 mph N/A   Overcast
1:53 PM 72.0 °F 54.0 °F 53% 29.84 in 10.0 mi South 12.7 mph - N/A   Mostly Cloudy
2:53 PM 69.1 °F 55.0 °F 61% 29.85 in 10.0 mi SSW 23.0 mph 31.1 mph N/A   Overcast
3:53 PM 68.0 °F 55.0 °F 63% 29.85 in 10.0 mi SSW 17.3 mph 26.5 mph N/A   Overcast
4:53 PM 68.0 °F 54.0 °F 61% 29.83 in 10.0 mi SSW 19.6 mph - N/A   Overcast
5:53 PM 68.0 °F 55.4 °F 64% 29.83 in 10.0 mi SSW 11.5 mph 21.9 mph N/A   Mostly Cloudy
6:53 PM 66.9 °F 54.0 °F 63% 29.84 in 10.0 mi SSW 10.4 mph - N/A   Mostly Cloudy
7:53 PM 66.9 °F 54.0 °F 63% 29.85 in 10.0 mi SSW 16.1 mph 19.6 mph N/A   Mostly Cloudy
8:53 PM 66.9 °F 55.0 °F 66% 29.87 in 10.0 mi SSW 8.1 mph - N/A   Mostly Cloudy
9:53 PM 66.9 °F 55.0 °F 66% 29.86 in 10.0 mi South 15.0 mph - N/A   Mostly Cloudy
10:53 PM 66.9 °F 55.0 °F 66% 29.86 in 10.0 mi South 15.0 mph - N/A   Mostly Cloudy
11:53 PM 66.9 °F 55.9 °F 68% 29.87 in 10.0 mi South 10.4 mph - N/A   Overcast